Location: Tierra del Sol
(32.6128°N, 116.3319°W)
Time: 14:31:59
(UTC-07:00)

OTV 5 (USA 277) - Pass Details

Date: 07 October 2017
Orbit: 404 x 417 km, 43.0° (Epoch: 07 September)

Event Time Altitude Azimuth Distance (km) Brightness Sun altitude
Rises 19:07:10 0° 215° (SW) 2,339 ? -10.4°
Reaches altitude 10° 19:09:26 10° 204° (SSW) 1,480 ? -10.9°
Maximum altitude 19:12:22 29° 142° (SE) 793 ? -11.5°
Enters shadow 19:13:58 19° 97° (E) 1,040 ? -11.8°
